Location: Campo Claro
(10.4907°N, 66.8285°W)
Time: 08:00:28
(UTC+00:00)

SL-08 RB Rocket - Pass Details

Date: 08 December 2021
Orbit: 646 x 683 km, 97.8° (Epoch: 24 January)

Event Time Altitude Azimuth Distance (km) Brightness Sun altitude
Rises 23:39:51 0° 178° (S) 3,036 7.3 -22.4°
Reaches altitude 10° 23:42:08 10° 183° (S) 2,120 6.6 -23.0°
Maximum altitude 23:46:39 52° 259° (WSW) 843 4.5 -24.0°
Drops below altitude 10° 23:51:09 10° 336° (NNW) 2,109 6.3 -25.0°
Sets 23:53:26 0° 341° (NNW) 3,018 7.1 -25.6°
